Regional Weather Roundup
Issued by NWS

Home | Current Version | Previous Version | Graphics & Text | Print | Product List | Glossary On
Versions: 1 2 3 4 5 6 7 8 9 10 11 12 13 14 15 16 17 18 19 20 21 22 23 24 25 26 27 28 29 30 31 32 33 34 35 36 37 38 39 40 41 42 43 44 45 46 47 48 49 50
587
ASUS45 KCYS 232010
RWRWY

WYOMING REGIONAL WEATHER ROUNDUP
NATIONAL WEATHER SERVICE CHEYENNE WY
100 PM MST THU FEB 23 2017

NOTE:  "FAIR" INDICATES FEW OR NO CLOUDS BELOW 12,000 FEET
WITH NO SIGNIFICANT WEATHER AND/OR OBSTRUCTIONS TO VISIBILITY.

WYZ001-232100-
YELLOWSTONE NATIONAL PARK

CITY           SKY/WX    TMP DP  RH WIND       PRES   REMARKS
LK YELLOWSTONE   N/A     19   7  59 VRB5      29.68R WCI  12
W YELLOWSTONE  NOT AVBL

$$
WYZ002>013-054>058-071-098>099-232100-
NORTHERN WYOMING

CITY           SKY/WX    TMP DP  RH WIND       PRES   REMARKS
JACKSON        FAIR      27  18  69 N16       29.63F WCI  14
CODY           CLOUDY    24  19  81 N17G25    29.80F WCI  11
GREYBULL       CLOUDY    31  21  66 NW18      29.75S WCI  19
WORLAND        LGT SNOW  28  26  92 NW14      29.76S VSB 3/4 WCI  17
SHERIDAN       CLOUDY    28  23  81 VRB7      29.87F WCI  21
BUFFALO        LGT SNOW  26  21  81 N15       29.82S VSB 3/4 WCI  14
GILLETTE       CLOUDY    28  24  85 NE16      29.81S FOG     WCI  16
HULETT         LGT SNOW  27  23  86 MISG      29.84S
NEWCASTLE      LGT SNOW  28  27  93 CALM      29.80R VSB 1

$$
WYZ014>020-022>026-101>103-232100-
CENTRAL WYOMING

CITY           SKY/WX    TMP DP  RH WIND       PRES   REMARKS
BIG PINEY      CLOUDY    26  14  60 N8        29.59S WCI  18
PINEDALE       MOCLDY    27  12  54 N8        29.60R WCI  18
DUBOIS         LGT SNOW  23  18  80 SE12      29.62S WCI  12
LANDER         FOG       24  22  91 NE13      29.69R VSB 1/4 WCI  12
RIVERTON       SNOW      23  20  88 N22G29    29.69S VSB 1/4 WCI   8
CASPER         SNOW      22  20  92 E21       29.69R VSB 1/2 WCI   6
DOUGLAS        LGT SNOW  21  17  84 E16       29.74S VSB 1   WCI   7

$$
WYZ021-027>030-104>119-232100-
SOUTHERN WYOMING

CITY           SKY/WX    TMP DP  RH WIND       PRES   REMARKS
EVANSTON       CLOUDY    22  13  68 W24       29.64S WCI   5
FORT BRIDGER   CLOUDY    25  23  92 W20G25    29.66S FOG     WCI  10
ROCK SPRINGS   HAZE      22  16  78 N30G39    29.57R VSB 1/2 WCI   4
DIXON          FLURRIES  28  19  69 S15G29    29.61R WCI  16
RAWLINS        FLURRIES  24  16  71 SE16      29.54S WCI  11
SARATOGA       CLOUDY    28  14  54 NW3       29.54S
LARAMIE        SNOW      19  13  77 E14       29.53R VSB 1/2 WCI   6
CHEYENNE       LGT SNOW  20  15  81 N21G28    29.58R WCI   4
TORRINGTON     SNOW      23  19  85 NE16      29.70F VSB 1/2 WCI  10
PINE BLUFFS    CLOUDY    23  21  93 N28       29.61F VSB 1   WCI   6

$$




USA.gov is the U.S. government's official web portal to all federal, state and local government web resources and services.